This is the latest recevied weather packets stored in our database for station/object KB3UMW-13. If no packets are shown the sender has not sent any weather packets the latest 10 day(s).
| Time | Temp. | Humidity | Pressure | Rain* | Wind** | Luminosity | Snow |
|---|---|---|---|---|---|---|---|
| 1778096361 | 13.89° C | 98% | 1009.5 hPa | 0 mm | - | 76 W/m² | - |
| 1778096058 | 13.89° C | 97% | 1009.2 hPa | 0 mm | - | 66 W/m² | - |
| 1778095754 | 13.89° C | 97% | 1009.3 hPa | 0 mm | - | 79 W/m² | - |
| 1778095451 | 13.89° C | 97% | 1009.3 hPa | 0 mm | - | 104 W/m² | - |
| 1778095148 | 14.44° C | 97% | 1009.2 hPa | 0 mm | - | 73 W/m² | - |
| 1778094845 | 14.44° C | 97% | 1009.1 hPa | 0 mm | - | 139 W/m² | - |
| 1778094542 | 14.44° C | 95% | 1009.1 hPa | 0 mm | - | 147 W/m² | - |
| 1778094238 | 14.44° C | 97% | 1009.2 hPa | 0 mm | - | 182 W/m² | - |
| 1778093935 | 14.44° C | 97% | 1008.8 hPa | 0 mm | - | 98 W/m² | - |
| 1778093632 | 14.44° C | 96% | 1008.9 hPa | 0 mm | - | 109 W/m² | - |
| 1778093329 | 15° C | 95% | 1008.9 hPa | 0 mm | - | 89 W/m² | - |
| 1778093026 | 15° C | 93% | 1008.8 hPa | 0 mm | - | 75 W/m² | - |
| 1778092723 | 15.56° C | 92% | 1008.7 hPa | 0 mm | - | 133 W/m² | - |
| 1778092418 | 16.11° C | 94% | 1008.6 hPa | 0 mm | - | 219 W/m² | - |
| 1778092116 | 16.67° C | 91% | 1008.7 hPa | 0 mm | - | 394 W/m² | - |
| 1778091813 | 16.67° C | 90% | 1008.8 hPa | 0 mm | - | 701 W/m² | - |
| 1778091511 | 16.11° C | 94% | 1008.8 hPa | 0 mm | - | 506 W/m² | - |
| 1778091208 | 15.56° C | 94% | 1008.9 hPa | 0 mm | - | 451 W/m² | - |
| 1778090905 | 15.56° C | 95% | 1009 hPa | 0 mm | - | 443 W/m² | - |
| 1778090601 | 15.56° C | 95% | 1008.9 hPa | 0 mm | - | 179 W/m² | - |
| 1778090298 | 15.56° C | 97% | 1008.9 hPa | 0 mm | - | 401 W/m² | - |
| 1778089995 | 15° C | 99% | 1008.9 hPa | 0 mm | - | 267 W/m² | - |
| 1778089692 | 15° C | 98% | 1008.8 hPa | 0 mm | - | 231 W/m² | - |
| 1778089389 | 15° C | 98% | 1008.7 hPa | 0 mm | - | 154 W/m² | - |
| 1778089087 | 15° C | 97% | 1009.1 hPa | 0 mm | - | 159 W/m² | - |
* Rain latest hour (hover to see other rain measurements)
** Current wind speed in m/s (hover to see current wind gust speed)